Zurück zum Katalog

STARLINK-2361

AktivKommunikationVLEO
NORAD 47901·PAYLOAD·🇺🇸 United States

Gestartet Mar 14, 2021 von Cape Canaveral Space Force Station

Loading…

Nächste Überflüge (nächste 24 Stunden)

TLE

AktuellSource: CelesTrak SupGP

Epoche: Sep 14, 2026, 20:11 UTC

1 47901C 21021AT  26257.84145833  .00032261  00000+0  63583-3 0  2573
2 47901  53.1515  85.7532 0000808 142.2916 269.5213 15.46601492    11

Verfolge STARLINK-2361 in Echtzeit mit AllMySat

Download on the App Store